Skip Page Navigation
NASA JPL Caltech
NASA Logo - Jet Propulsion Laboratory + View the NASA Portal
+ Near-Earth Object (NEO) Program
Search JPL
JPL Home Earth Solar System Stars & Galaxies Technology
JPL Solar System Dynamics
BODIES ORBITS EPHEMERIDES TOOLS PHYSICAL DATA DISCOVERY FAQ SITE MAP
JPL Small-Body Database Browser
Search: [ help ]  
233635 (2007 VE27)
Classification: Outer Main-belt Asteroid          SPK-ID: 2233635
Ephemeris | Orbit Diagram | Orbital Elements | Physical Parameters | Discovery Circumstances ]

[ hide orbit diagram ]
Orbit Diagram
Note: Make sure you have Java enabled on your browser to see the applet. This applet is provided as a 3D orbit visualization tool. The applet was implemented using 2-body methods, and hence should not be used for determining accurate long-term trajectories (over several years or decades) or planetary encounter circumstances. For accurate long-term ephemerides, please instead use our Horizons system.
Orbit Viewer

Additional Notes: the orbits shown in the applet are color coded. The planets are white lines, and the asteroid/comet is a blue line. The bright white line indicates the portion of the orbit that is above the ecliptic plane, and the darker portion is below the ecliptic plane. Likewise for the asteroid/comet orbit, the light blue indicates the portion above the ecliptic plane, and the dark blue the portion below the ecliptic plane.

Orbit Viewer applet originally written and kindly provided by Osamu Ajiki (AstroArts), and further modified by Ron Baalke (JPL).


Orbital Elements at Epoch 2456400.5 (2013-Apr-18.0) TDB
Reference: MPO245484 (heliocentric ecliptic J2000)
 Element Value Uncertainty (1-sigma)   Units 
e 0.0365059 n/a  
a 3.2484177 n/a AU
q 3.1298313 n/a AU
i 10.19073 n/a deg
node 330.04145 n/a deg
peri 190.92310 n/a deg
M 188.80319 n/a deg
tp 2457417.4495140
(2016-Jan-29.94951400)
n/a JED
period 2138.4850865
5.85
n/a
n/a
d
yr
n 0.16834347 n/a deg/d
Q 3.3670041 n/a AU
  Orbit Determination Parameters
   # obs. used (total)      98  
   first obs. used      1995-??-??  
   last obs. used      2012-11-02  
   # oppositions      8  
   planetary ephem.      DE403  
   condition code      0  
   fit RMS      0.43  
   data source      MPC:mpu  
   producer      MPCLINUX  

Additional Information
 T_jup = 3.156 

Ephemeris | Orbit Diagram | Orbital Elements | Physical Parameters | Discovery Circumstances ]

Physical Parameter Table
Parameter Symbol Value Units Sigma Reference Notes
absolute magnitude H 15.6 mag n/a MPO245484  

233635 (2007 VE27)          Discovered 2007-Nov-02 by Molnar, L. A. at Calvin-Rehoboth (G98)
Reference: 20100228/Numbers.arcLast Updated: 2010-03-03

Alternate Designations
 2007 VE27 = 2004 DX50 
Ephemeris | Orbit Diagram | Orbital Elements | Physical Parameters | Discovery Circumstances ]
ABOUT SSD CREDITS/AWARDS PRIVACY/COPYRIGHT GLOSSARY LINKS
FirstGov 2013-May-21 03:49 UT
(server date/time)  
NASA Home Page
Site Manager:   Donald K. Yeomans
Webmaster  Alan B. Chamberlin